Location: Étouvelles
(49.5207°N, 3.5808°E)
Time: 07:42:59
(UTC+00:00)

Cosmos 468 Rocket - Pass Details

Date: 03 February 2023
Orbit: 744 x 778 km, 74.0° (Epoch: 22 March)

Event Time Altitude Azimuth Distance (km) Brightness Sun altitude
Rises 17:59:16 0° 336° (NNW) 3,224 7.4 -12.4°
Reaches altitude 10° 18:01:40 10° 337° (NNW) 2,290 6.6 -12.8°
Maximum altitude 18:06:52 85° 66° (ENE) 759 3.9 -13.6°
Drops below altitude 10° 18:11:59 10° 156° (SSE) 2,258 6.3 -14.4°
Sets 18:14:20 0° 157° (SSE) 3,175 7.0 -14.8°
